Flag for San Marino Weather past 2 weeks in San Marino, San Marino

Now
46 °F

Fog.


Feels Like: 46 °F
Forecast: 29 / 44 °F
Wind: No wind

Location: Rimini Airport

Current Time: Feb 28, 2015 at 7:07:44 PM

Latest Report: Feb 28, 2015 at 6:15 PM


Visibility: 3 mi

Pressure: 30.04 "Hg

Humidity: 93%

Dew point: 45 °F

Location of San MarinoLocation

Historic Weather in San Marino — Graph

°F

San Marino temperature yesterday

Maximum temperature yesterday: 52 °F (at 1:15 PM)
Minimum temperature yesterday: 45 °F (at 6:45 AM)
Average temperature yesterday: 49 °F

Past Weeks' High & Low Weather Summary

 TemperatureHumidityPressure
High54 °F (Feb 21, 12:15 PM)100% (Feb 14, 6:45 AM)30.60 "Hg (Feb 14, 6:45 AM)
Low28 °F (Feb 20, 6:45 AM)53% (Feb 18, 11:45 AM)29.42 "Hg (Feb 22, 7:15 AM)
Average46 °F84%30.00 "Hg
* Reported Feb 13 5:15 PM — Feb 28 5:45 PM, San Marino, Weather by CustomWeather, © 2015

Note: Actual official high and low records may vary slightly from our data, if they occured in-between our weather recording intervals... More about our weather records

Advertising

San Marino weather history for previous 24 hours

 ConditionsComfort  
Time TempWeatherWind HumidityBarometerVisibility
5:45 PM
Sat, Feb 28
48 °FClear.2 mph82%30.04 "Hg4 mi
5:15 PM48 °FFog.2 mph82%30.04 "Hg3 mi
4:45 PM50 °FFog.3 mph76%30.04 "Hg3 mi
4:15 PM50 °FFog.5 mph76%30.04 "Hg3 mi
3:45 PM50 °FFog.6 mph76%30.04 "Hg3 mi
3:15 PM50 °FFog.5 mph76%30.04 "Hg3 mi
2:45 PM50 °FFog.5 mph76%30.04 "Hg3 mi
2:15 PM50 °FFog.3 mph71%30.04 "Hg2 mi
1:45 PM50 °FFog.5 mph71%30.04 "Hg2 mi
1:15 PM50 °FFog.7 mph76%30.04 "Hg2 mi
12:45 PM50 °FFog.9 mph76%30.04 "Hg2 mi
12:15 PM50 °FFog.8 mph71%30.04 "Hg2 mi
11:45 AM48 °FFog.13 mph71%30.04 "Hg2 mi
11:15 AM48 °FFog.12 mph71%30.01 "Hg2 mi
10:45 AM48 °FFog.14 mph71%30.01 "Hg3 mi
10:15 AM48 °FFog.10 mph71%30.01 "Hg3 mi
9:45 AM50 °FFog.9 mph67%30.01 "Hg3 mi
9:15 AM48 °FClear.9 mph76%30.01 "Hg4 mi
8:45 AM45 °FClear.5 mph93%30.01 "Hg4 mi
8:15 AM41 °FClear.5 mph100%29.98 "Hg4 mi
7:45 AM39 °FClear.5 mph100%29.98 "Hg4 mi
7:15 AM39 °FFog.5 mph93%29.98 "Hg3 mi
6:45 AM39 °FFog.5 mph93%29.95 "Hg3 mi
Weather by CustomWeather, © 2015

See weather overviewHow to use our weather pages